Content
SEND FEEDBACK

Daily
Averages
Monthly
Summary
United States of America

ENDERLIN, NORTH DAKOTA


Home > North America > United States > North Dakota
Elevation: 1120 feet     Latitude: 46 37N     Longitude: 097 36W

WEATHER
 
SELECT A DAY
Number of Records: 63,484;   Date Range: 12/15/10 - 8/26/14
 
SHARE

PRINT THIS DATA

[ ← Previous Day ]
WEATHER ALMANAC - JUNE 9, 2014
[ Next Day → ]
[ °C ]   °F
Weather ElementAverageHighLow
Temperature61.7 °F75.2 °F (3:55 pm)46.4 °F (5:35 am)
Dewpoint49.6 °F57.2 °F (7:55 am)41 °F (6:35 pm)
Humidity70.8 %100 % (12:35 am)29 % (6:35 pm)
Barometer29.97 in30.02 in (12:35 am)29.90 in (8:15 pm)
Wind Speed7.3 mph13.8 mph (1:35 pm)
Wind Gust18.4 mph (1:55 pm)
Weather ElementAverage
Visibility10 mi
Wind DirectionSW (225.2 °)

Weather ElementTotal
Precipitation---
Heating Degree Days4.2 (Base 65)
Growing Degree Days10.8 (Base 50)
Averaged from 65 records on June 9, 2014
WEATHER CONDITIONS BREAKOUT
WIND DIRECTION BREAKOUT
WEATHER BY HOUR - JUNE 9, 2014
[ °C ]   °F
Local TimeTemperatureDewpointHumidityBarometerVisibilityWind DirectionWind SpeedGust SpeedPrecipitationEventsConditions
12:35 AM55.4 °F55.4 °F100 %30.02 in10.0 miWSW (250°)10.4 mphMostly Cloudy
12:55 AM55.4 °F55.4 °F100 %30.02 in10.0 miWSW (250°)8.1 mphPartly Cloudy
1:15 AM55.4 °F55.4 °F100 %30.02 in10.0 miWest (270°)8.1 mphScattered Clouds
1:35 AM55.4 °F55.4 °F100 %30.02 in10.0 miSouth (170°)6.9 mphOvercast
1:55 AM53.6 °F53.6 °F100 %30.02 in10.0 miSW (230°)5.8 mphMostly Cloudy
2:15 AM53.6 °F53.6 °F100 %30.02 in10.0 miSW (230°)5.8 mphScattered Clouds
2:35 AM51.8 °F51.8 °F100 %30.02 in10.0 miWSW (240°)4.6 mphScattered Clouds
2:55 AM50.0 °F50.0 °F100 %30.01 in10.0 miWest (270°)4.6 mphClear
3:15 AM50.0 °F50.0 °F100 %30.01 in10.0 miSW (220°)3.5 mphClear
3:35 AM48.2 °F48.2 °F100 %30.01 in10.0 miWSW (240°)6.9 mphClear
3:55 AM50.0 °F50.0 °F100 %30.02 in10.0 miWSW (250°)6.9 mphClear
4:15 AM50.0 °F50.0 °F100 %30.02 in10.0 miWSW (250°)5.8 mphClear
4:35 AM50.0 °F50.0 °F100 %30.02 in10.0 miWSW (240°)5.8 mphClear
4:55 AM48.2 °F48.2 °F100 %30.01 in10.0 miSW (230°)6.9 mphClear
5:15 AM48.2 °F48.2 °F100 %30.01 in10.0 miSW (220°)6.9 mphClear
5:35 AM46.4 °F46.4 °F100 %30.01 in10.0 miSSW (210°)4.6 mphClear
5:55 AM46.4 °F46.4 °F100 %30.01 in10.0 miSW (220°)3.5 mphClear
6:15 AM46.4 °F46.4 °F100 %30.00 in10.0 miSW (230°)5.8 mphClear
6:35 AM46.4 °F46.4 °F100 %30.01 in10.0 miCalmClear
6:55 AM50.0 °F50.0 °F100 %30.01 in10.0 miCalmClear
7:15 AM51.8 °F51.8 °F100 %30.01 in10.0 miSSW (200°)4.6 mphClear
7:35 AM53.6 °F53.6 °F100 %30.01 in10.0 miWSW (240°)5.8 mphClear
7:55 AM57.2 °F57.2 °F100 %30.02 in10.0 miWest (280°)10.4 mphClear
8:15 AM57.2 °F57.2 °F100 %30.02 in10.0 miWNW (290°)9.2 mphClear
8:35 AM57.2 °F57.2 °F100 %30.02 in10.0 miWest (280°)9.2 mphClear
8:55 AM59.0 °F57.2 °F94 %30.02 in10.0 miWest (280°)9.2 mphClear
9:15 AM59.0 °F55.4 °F88 %30.02 in10.0 miWest (280°)5.8 mphClear
10:15 AM62.6 °F55.4 °F77 %30.02 in10.0 miWest (280°)8.1 mphMostly Cloudy
10:35 AM64.4 °F55.4 °F73 %30.02 in10.0 miWSW (250°)9.2 mphMostly Cloudy
10:55 AM62.6 °F55.4 °F77 %30.02 in10.0 miWest (270°)6.9 mphScattered Clouds
11:35 AM64.4 °F55.4 °F73 %30.02 in10.0 miWest (260°)6.9 mphScattered Clouds
11:55 AM66.2 °F53.6 °F64 %30.01 in10.0 miWSW (250°)11.5 mphPartly Cloudy
12:15 PM66.2 °F51.8 °F60 %30.01 in10.0 miWest (260°)8.1 mphScattered Clouds
12:35 PM66.2 °F53.6 °F64 %30.01 in10.0 miWSW (250°)6.9 mphScattered Clouds
1:15 PM68.0 °F51.8 °F56 %29.99 in10.0 miWest (270°)11.5 mph17.3 mphScattered Clouds
1:35 PM69.8 °F50.0 °F49 %29.99 in10.0 miWSW (250°)13.8 mph17.3 mphPartly Cloudy
1:55 PM71.6 °F50.0 °F46 %29.98 in10.0 miWest (260°)11.5 mph18.4 mphClear
2:55 PM73.4 °F48.2 °F41 %29.96 in10.0 miWest (260°)8.1 mphPartly Cloudy
3:15 PM73.4 °F46.4 °F38 %29.95 in10.0 miWNW (300°)11.5 mph17.3 mphClear
3:35 PM73.4 °F46.4 °F38 %29.94 in10.0 miWNW (290°)5.8 mphClear
3:55 PM75.2 °F46.4 °F36 %29.94 in10.0 miNW (320°)11.5 mph16.1 mphClear
4:15 PM75.2 °F46.4 °F36 %29.93 in10.0 miWNW (300°)10.4 mphScattered Clouds
4:35 PM75.2 °F44.6 °F34 %29.93 in10.0 miWNW (290°)3.5 mphScattered Clouds
4:55 PM75.2 °F44.6 °F34 %29.92 in10.0 miWest (270°)10.4 mphScattered Clouds
5:15 PM75.2 °F46.4 °F36 %29.92 in10.0 miWSW (250°)9.2 mphPartly Cloudy
5:35 PM75.2 °F42.8 °F31 %29.92 in10.0 miWest (280°)3.5 mphClear
5:55 PM75.2 °F42.8 °F31 %29.92 in10.0 miWest (260°)6.9 mphClear
6:15 PM75.2 °F42.8 °F31 %29.92 in10.0 miSSW (210°)3.5 mphClear
6:35 PM75.2 °F41.0 °F29 %29.92 in10.0 miCalmClear
6:55 PM75.2 °F41.0 °F29 %29.91 in10.0 miSouth (170°)5.8 mphClear
7:15 PM73.4 °F44.6 °F36 %29.91 in10.0 miSouth (170°)6.9 mphPartly Cloudy
7:35 PM69.8 °F48.2 °F46 %29.91 in10.0 miSouth (180°)5.8 mphPartly Cloudy
7:55 PM73.4 °F44.6 °F36 %29.91 in10.0 miSouth (170°)11.5 mphClear
8:15 PM71.6 °F46.4 °F41 %29.90 in10.0 miSouth (180°)8.1 mphClear
8:35 PM69.8 °F46.4 °F43 %29.90 in10.0 miSouth (180°)8.1 mphClear
8:55 PM66.2 °F46.4 °F49 %29.90 in10.0 miSouth (180°)6.9 mphClear
9:15 PM64.4 °F46.4 °F52 %29.90 in10.0 miSouth (180°)6.9 mphClear
9:35 PM64.4 °F46.4 °F52 %29.90 in10.0 miSouth (190°)8.1 mphClear
9:55 PM62.6 °F46.4 °F55 %29.91 in10.0 miSouth (180°)10.4 mphClear
10:15 PM62.6 °F48.2 °F59 %29.91 in10.0 miSouth (190°)9.2 mphClear
10:35 PM59.0 °F48.2 °F67 %29.91 in10.0 miSouth (190°)8.1 mphClear
10:55 PM59.0 °F50.0 °F72 %29.91 in10.0 miSouth (190°)8.1 mphClear
11:15 PM57.2 °F50.0 °F77 %29.91 in10.0 miSouth (190°)9.2 mphClear
11:35 PM57.2 °F50.0 °F77 %29.91 in10.0 miSouth (190°)8.1 mphClear
11:55 PM57.2 °F50.0 °F77 %29.90 in10.0 miSSW (210°)9.2 mphClear
Hourly data recorded from KBAC, located miles away from Enderlin, North Dakota







STORIES FROM OUR PARTNERS